| time (UTC) | temp F | wind direction | speed knots | gust knots | rain 1hr in | rain 24hr in | rain mn in | humidity % | barometer mb |
| 20260902194531 | 97 | 334 | 1.7 | 7.8 | 0.00 | 0.00 | 0.00 | 48 | 1013.7 |
| 20260902194018 | 97 | 329 | 2.6 | 8.7 | 0.00 | 0.00 | 0.00 | 48 | 1013.7 |
| 20260902193519 | 97 | 61 | 2.6 | 8.7 | 0.00 | 0.00 | 0.00 | 48 | 1013.8 |
| 20260902193034 | 97 | 313 | 2.6 | 8.7 | 0.00 | 0.00 | 0.00 | 47 | 1013.8 |
| 20260902192518 | 97 | 5 | 2.6 | 7.8 | 0.00 | 0.00 | 0.00 | 47 | 1013.9 |
| 20260902192003 | 97 | 65 | 0.9 | 7.0 | 0.00 | 0.00 | 0.00 | 47 | 1014.0 |
| 20260902191504 | 97 | 90 | 1.7 | 8.7 | 0.00 | 0.00 | 0.00 | 47 | 1014.1 |
| 20260902191004 | 97 | 123 | 1.7 | 9.6 | 0.00 | 0.00 | 0.00 | 48 | 1014.1 |
| 20260902190505 | 97 | 137 | 3.5 | 9.6 | 0.00 | 0.00 | 0.00 | 48 | 1014.1 |
| 20260902190007 | 96 | 128 | 1.7 | 6.1 | 0.00 | 0.00 | 0.00 | 49 | 1014.2 |
| 20260902185503 | 96 | 23 | 0.0 | 10.4 | 0.00 | 0.00 | 0.00 | 48 | 1014.3 |
| 20260902185004 | 96 | 138 | 4.3 | 10.4 | 0.00 | 0.00 | 0.00 | 49 | 1014.4 |
| 20260902184508 | 95 | 62 | 2.6 | 8.7 | 0.00 | 0.00 | 0.00 | 49 | 1014.5 |
| 20260902184004 | 95 | 105 | 0.0 | 7.8 | 0.00 | 0.00 | 0.00 | 51 | 1014.5 |
| 20260902183504 | 95 | 86 | 3.5 | 7.8 | 0.00 | 0.00 | 0.00 | 50 | 1014.7 |
| 20260902183011 | 96 | 44 | 2.6 | 7.0 | 0.00 | 0.00 | 0.00 | 50 | 1014.8 |
| 20260902182504 | 95 | 122 | 0.9 | 7.8 | 0.00 | 0.00 | 0.00 | 50 | 1015.0 |
| 20260902182002 | 95 | 115 | 0.9 | 7.8 | 0.00 | 0.00 | 0.00 | 50 | 1015.0 |
| 20260902181504 | 96 | 96 | 2.6 | 7.8 | 0.00 | 0.00 | 0.00 | 51 | 1015.2 |
| 20260902181003 | 95 | 123 | 0.9 | 8.7 | 0.00 | 0.00 | 0.00 | 51 | 1015.2 |
| 20260902180505 | 95 | 82 | 2.6 | 8.7 | 0.00 | 0.00 | 0.00 | 51 | 1015.4 |
| 20260902180007 | 95 | 122 | 2.6 | 7.0 | 0.00 | 0.00 | 0.00 | 51 | 1015.5 |
| 20260902175504 | 95 | 108 | 2.6 | 8.7 | 0.00 | 0.00 | 0.00 | 50 | 1015.7 |
| 20260902175004 | 94 | 109 | 4.3 | 8.7 | 0.00 | 0.00 | 0.00 | 53 | 1015.8 |
| 20260902174511 | 94 | 153 | 2.6 | 8.7 | 0.00 | 0.00 | 0.00 | 53 | 1015.9 |
| 20260902174003 | 94 | 130 | 2.6 | 7.8 | 0.00 | 0.00 | 0.00 | 54 | 1016.0 |
| 20260902173504 | 94 | 122 | 2.6 | 9.6 | 0.00 | 0.00 | 0.00 | 54 | 1016.0 |
| 20260902173006 | 94 | 119 | 2.6 | 9.6 | 0.00 | 0.00 | 0.00 | 56 | 1016.1 |
| 20260902172505 | 93 | 124 | 0.9 | 6.1 | 0.00 | 0.00 | 0.00 | 56 | 1016.1 |
| 20260902172004 | 92 | 119 | 0.0 | 6.1 | 0.00 | 0.00 | 0.00 | 58 | 1016.2 |
| 20260902171506 | 92 | 323 | 1.7 | 6.1 | 0.00 | 0.00 | 0.00 | 58 | 1016.4 |
| 20260902171003 | 93 | 56 | 2.6 | 6.1 | 0.00 | 0.00 | 0.00 | 58 | 1016.5 |
| 20260902170502 | 92 | 306 | 0.0 | 3.5 | 0.00 | 0.00 | 0.00 | 60 | 1016.5 |
| 20260902170005 | 91 | 88 | 0.0 | 7.0 | 0.00 | 0.00 | 0.00 | 60 | 1016.6 |
| 20260902165502 | 91 | 88 | 1.7 | 7.0 | 0.00 | 0.00 | 0.00 | 60 | 1016.7 |
| 20260902165004 | 91 | 99 | 0.0 | 7.0 | 0.00 | 0.00 | 0.00 | 60 | 1016.8 |
| 20260902164505 | 91 | 86 | 0.9 | 7.0 | 0.00 | 0.00 | 0.00 | 60 | 1016.8 |
| 20260902164003 | 91 | 109 | 0.0 | 6.1 | 0.00 | 0.00 | 0.00 | 63 | 1016.9 |
| 20260902163504 | 90 | 95 | 0.9 | 5.2 | 0.00 | 0.00 | 0.00 | 62 | 1016.8 |
| 20260902163005 | 90 | 129 | 0.9 | 6.1 | 0.00 | 0.00 | 0.00 | 63 | 1016.9 |
| 20260902162504 | 90 | 105 | 0.9 | 6.1 | 0.00 | 0.00 | 0.00 | 63 | 1016.8 |
| 20260902162004 | 90 | 96 | 0.0 | 4.3 | 0.00 | 0.00 | 0.00 | 62 | 1017.0 |
| 20260902161511 | 91 | 53 | 0.0 | 4.3 | 0.00 | 0.00 | 0.00 | 62 | 1017.0 |
| 20260902161004 | 91 | 51 | 0.0 | 4.3 | 0.00 | 0.00 | 0.00 | 63 | 1017.0 |
| 20260902160505 | 91 | 51 | 0.9 | 4.3 | 0.00 | 0.00 | 0.00 | 63 | 1017.0 |
| 20260902160010 | 91 | 178 | 0.0 | 2.6 | 0.00 | 0.00 | 0.00 | 64 | 1017.0 |
| 20260902155505 | 90 | 175 | 0.0 | 2.6 | 0.00 | 0.00 | 0.00 | 64 | 1017.0 |
| 20260902155002 | 90 | 287 | 0.0 | 2.6 | 0.00 | 0.00 | 0.00 | 64 | 1017.1 |
| 20260902154503 | 90 | 148 | 0.0 | 6.1 | 0.00 | 0.00 | 0.00 | 64 | 1017.0 |
| 20260902154003 | 90 | 142 | 0.9 | 7.0 | 0.00 | 0.00 | 0.00 | 64 | 1017.0 |
| 20260902153503 | 90 | 153 | 0.9 | 7.0 | 0.00 | 0.00 | 0.00 | 65 | 1017.0 |
| 20260902153005 | 89 | 136 | 0.0 | 3.5 | 0.00 | 0.00 | 0.00 | 65 | 1016.9 |
| 20260902152504 | 90 | 134 | 0.9 | 3.5 | 0.00 | 0.00 | 0.00 | 65 | 1016.9 |
| 20260902152003 | 89 | 134 | 0.0 | 6.1 | 0.00 | 0.00 | 0.00 | 66 | 1016.9 |
| 20260902151509 | 89 | 135 | 0.0 | 7.0 | 0.00 | 0.00 | 0.00 | 66 | 1016.9 |
| 20260902151004 | 88 | 158 | 0.0 | 7.0 | 0.00 | 0.00 | 0.00 | 68 | 1016.9 |
| 20260902150504 | 88 | 121 | 0.9 | 6.1 | 0.00 | 0.00 | 0.00 | 68 | 1016.8 |
| 20260902150010 | 88 | 133 | 0.0 | 4.3 | 0.00 | 0.00 | 0.00 | 70 | 1016.8 |
| 20260902145506 | 87 | 126 | 0.9 | 4.3 | 0.00 | 0.00 | 0.00 | 69 | 1016.8 |
| 20260902145006 | 88 | 87 | 0.9 | 4.3 | 0.00 | 0.00 | 0.00 | 68 | 1016.9 |
| 20260902144510 | 88 | 128 | 1.7 | 4.3 | 0.00 | 0.00 | 0.00 | 68 | 1016.8 |
| 20260902144004 | 88 | 142 | 0.0 | 4.3 | 0.00 | 0.00 | 0.00 | 68 | 1016.8 |
| 20260902143502 | 88 | 143 | 0.0 | 4.3 | 0.00 | 0.00 | 0.00 | 68 | 1016.7 |
| 20260902143005 | 88 | 162 | 0.0 | 1.7 | 0.00 | 0.00 | 0.00 | 69 | 1016.7 |
| 20260902142504 | 87 | 155 | 0.0 | 4.3 | 0.00 | 0.00 | 0.00 | 69 | 1016.7 |
| 20260902142002 | 87 | 155 | 0.0 | 4.3 | 0.00 | 0.00 | 0.00 | 70 | 1016.7 |
| 20260902141505 | 87 | 155 | 0.0 | 5.2 | 0.00 | 0.00 | 0.00 | 70 | 1016.7 |
| 20260902141008 | 87 | 128 | 1.7 | 5.2 | 0.00 | 0.00 | 0.00 | 70 | 1016.8 |
| 20260902140503 | 86 | 182 | 0.0 | 4.3 | 0.00 | 0.00 | 0.00 | 71 | 1016.7 |
| 20260902140010 | 86 | 180 | 0.0 | 4.3 | 0.00 | 0.00 | 0.00 | 72 | 1016.7 |
| 20260902135504 | 85 | 146 | 0.0 | 4.3 | 0.00 | 0.00 | 0.00 | 73 | 1016.6 |
| 20260902135010 | 85 | 158 | 0.9 | 5.2 | 0.00 | 0.00 | 0.00 | 74 | 1016.6 |
| 20260902134513 | 84 | 160 | 0.0 | 7.0 | 0.00 | 0.00 | 0.00 | 74 | 1016.5 |
| 20260902134006 | 83 | 127 | 0.9 | 7.0 | 0.00 | 0.00 | 0.00 | 75 | 1016.5 |
| 20260902133503 | 83 | 119 | 2.6 | 7.0 | 0.00 | 0.00 | 0.00 | 74 | 1016.5 |
| 20260902133013 | 83 | 130 | 1.7 | 4.3 | 0.00 | 0.00 | 0.00 | 74 | 1016.5 |
| 20260902132509 | 83 | 134 | 0.0 | 4.3 | 0.00 | 0.00 | 0.00 | 75 | 1016.5 |
| 20260902132002 | 82 | 130 | 0.9 | 6.1 | 0.00 | 0.00 | 0.00 | 75 | 1016.5 |
| 20260902131502 | 82 | 121 | 0.0 | 7.8 | 0.00 | 0.00 | 0.00 | 76 | 1016.5 |
| 20260902131004 | 81 | 130 | 2.6 | 7.8 | 0.00 | 0.00 | 0.00 | 76 | 1016.5 |
| 20260902130503 | 81 | 106 | 2.6 | 7.0 | 0.00 | 0.00 | 0.00 | 76 | 1016.5 |
| 20260902130009 | 81 | 115 | 2.6 | 7.8 | 0.00 | 0.00 | 0.00 | 77 | 1016.4 |
| 20260902125503 | 80 | 118 | 4.3 | 7.8 | 0.00 | 0.00 | 0.00 | 78 | 1016.4 |
| 20260902125004 | 80 | 146 | 0.0 | 7.0 | 0.00 | 0.00 | 0.00 | 79 | 1016.3 |
| 20260902124514 | 79 | 161 | 0.0 | 4.3 | 0.00 | 0.00 | 0.00 | 80 | 1016.3 |
| 20260902124011 | 79 | 174 | 0.0 | 2.6 | 0.00 | 0.00 | 0.00 | 81 | 1016.3 |
| 20260902123506 | 78 | 174 | 0.0 | 0.9 | 0.00 | 0.00 | 0.00 | 82 | 1016.3 |
| 20260902123014 | 78 | 174 | 0.0 | 4.3 | 0.00 | 0.00 | 0.00 | 83 | 1016.2 |
| 20260902122507 | 78 | 174 | 0.0 | 4.3 | 0.00 | 0.00 | 0.00 | 83 | 1016.2 |
| 20260902122007 | 77 | 189 | 0.0 | 3.5 | 0.00 | 0.00 | 0.00 | 83 | 1016.2 |
| 20260902121516 | 77 | 190 | 0.0 | 1.7 | 0.00 | 0.00 | 0.00 | 83 | 1016.2 |
| 20260902121008 | 77 | 190 | 0.0 | 0.9 | 0.00 | 0.00 | 0.00 | 82 | 1016.2 |
| 20260902120503 | 77 | 190 | 0.0 | 0.9 | 0.00 | 0.00 | 0.00 | 82 | 1016.2 |
| 20260902120004 | 78 | 190 | 0.0 | 0.0 | 0.00 | 0.00 | 0.00 | 82 | 1016.2 |
| 20260902115503 | 78 | 190 | 0.0 | 0.9 | 0.00 | 0.00 | 0.00 | 82 | 1016.1 |
| 20260902115003 | 78 | 190 | 0.0 | 0.9 | 0.00 | 0.00 | 0.00 | 82 | 1016.2 |
| 20260902114508 | 78 | 190 | 0.0 | 0.9 | 0.00 | 0.00 | 0.00 | 82 | 1016.3 |
| 20260902114004 | 78 | 190 | 0.0 | 1.7 | 0.00 | 0.00 | 0.00 | 83 | 1016.3 |
| 20260902113508 | 78 | 190 | 0.0 | 1.7 | 0.00 | 0.00 | 0.00 | 83 | 1016.3 |
| 20260902113014 | 78 | 190 | 0.0 | 0.9 | 0.00 | 0.00 | 0.00 | 83 | 1016.3 |
| 20260902112507 | 78 | 190 | 0.0 | 0.0 | 0.00 | 0.00 | 0.00 | 83 | 1016.3 |
| 20260902112008 | 78 | 190 | 0.0 | 0.0 | 0.00 | 0.00 | 0.00 | 83 | 1016.3 |
| 20260902111520 | 78 | 190 | 0.0 | 0.0 | 0.00 | 0.00 | 0.00 | 83 | 1016.3 |
| 20260902111006 | 78 | 190 | 0.0 | 0.0 | 0.00 | 0.00 | 0.00 | 83 | 1016.2 |
| 20260902110508 | 78 | 190 | 0.0 | 0.0 | 0.00 | 0.00 | 0.00 | 83 | 1016.2 |
| 20260902110035 | 78 | 190 | 0.0 | 0.0 | 0.00 | 0.00 | 0.00 | 83 | 1016.2 |
| 20260902105508 | 78 | 190 | 0.0 | 0.0 | 0.00 | 0.00 | 0.00 | 83 | 1016.2 |
| 20260902105004 | 78 | 190 | 0.0 | 0.0 | 0.00 | 0.00 | 0.00 | 82 | 1016.1 |
| 20260902104515 | 78 | 190 | 0.0 | 0.0 | 0.00 | 0.00 | 0.00 | 82 | 1016.1 |
| 20260902104002 | 78 | 190 | 0.0 | 0.0 | 0.00 | 0.00 | 0.00 | 81 | 1016.2 |
| 20260902103503 | 79 | 190 | 0.0 | 0.0 | 0.00 | 0.00 | 0.00 | 81 | 1016.1 |
| 20260902103026 | 79 | 190 | 0.0 | 0.0 | 0.00 | 0.00 | 0.00 | 81 | 1016.1 |
| 20260902102506 | 79 | 190 | 0.0 | 0.0 | 0.00 | 0.00 | 0.00 | 80 | 1016.2 |
| 20260902102008 | 79 | 190 | 0.0 | 0.0 | 0.00 | 0.00 | 0.00 | 80 | 1016.2 |
| 20260902101520 | 79 | 190 | 0.0 | 0.0 | 0.00 | 0.00 | 0.00 | 79 | 1016.1 |
| 20260902101008 | 79 | 190 | 0.0 | 0.0 | 0.00 | 0.00 | 0.00 | 79 | 1016.2 |
| 20260902100508 | 79 | 190 | 0.0 | 0.0 | 0.00 | 0.00 | 0.00 | 79 | 1016.2 |
| 20260902100020 | 80 | 190 | 0.0 | 0.0 | 0.00 | 0.00 | 0.00 | 79 | 1016.2 |
| 20260902095510 | 80 | 190 | 0.0 | 0.0 | 0.00 | 0.00 | 0.00 | 79 | 1016.2 |
| 20260902095008 | 80 | 190 | 0.0 | 0.0 | 0.00 | 0.00 | 0.00 | 79 | 1016.2 |
| 20260902094522 | 80 | 190 | 0.0 | 0.0 | 0.00 | 0.00 | 0.00 | 79 | 1016.2 |
| 20260902094008 | 80 | 190 | 0.0 | 0.0 | 0.00 | 0.00 | 0.00 | 79 | 1016.1 |
| 20260902093505 | 80 | 190 | 0.0 | 0.0 | 0.00 | 0.00 | 0.00 | 79 | 1016.1 |
| 20260902093010 | 81 | 190 | 0.0 | 0.0 | 0.00 | 0.00 | 0.00 | 78 | 1016.1 |
| 20260902092503 | 81 | 190 | 0.0 | 0.0 | 0.00 | 0.00 | 0.00 | 78 | 1016.1 |
| 20260902092006 | 81 | 190 | 0.0 | 0.0 | 0.00 | 0.00 | 0.00 | 77 | 1015.9 |
| 20260902091516 | 81 | 190 | 0.0 | 0.0 | 0.00 | 0.00 | 0.00 | 76 | 1015.9 |
| 20260902091006 | 81 | 190 | 0.0 | 0.0 | 0.00 | 0.00 | 0.00 | 75 | 1015.9 |
| 20260902090509 | 81 | 190 | 0.0 | 0.0 | 0.00 | 0.00 | 0.00 | 74 | 1015.9 |
| 20260902090026 | 81 | 190 | 0.0 | 0.0 | 0.00 | 0.00 | 0.00 | 74 | 1015.9 |
| 20260902085508 | 82 | 190 | 0.0 | 0.0 | 0.00 | 0.00 | 0.00 | 74 | 1015.8 |
| 20260902085011 | 82 | 190 | 0.0 | 0.0 | 0.00 | 0.00 | 0.00 | 73 | 1015.8 |
| 20260902084526 | 82 | 190 | 0.0 | 0.0 | 0.00 | 0.00 | 0.00 | 73 | 1015.8 |
| 20260902084009 | 82 | 190 | 0.0 | 0.9 | 0.00 | 0.00 | 0.00 | 73 | 1015.8 |
| 20260902083510 | 82 | 190 | 0.0 | 0.9 | 0.00 | 0.00 | 0.00 | 73 | 1015.8 |
| 20260902083023 | 82 | 190 | 0.0 | 0.9 | 0.00 | 0.00 | 0.00 | 73 | 1015.8 |
| 20260902082508 | 82 | 190 | 0.0 | 0.0 | 0.00 | 0.00 | 0.00 | 73 | 1015.8 |
| 20260902082003 | 83 | 190 | 0.0 | 0.0 | 0.00 | 0.00 | 0.00 | 73 | 1015.9 |
| 20260902081509 | 83 | 190 | 0.0 | 0.0 | 0.00 | 0.00 | 0.00 | 72 | 1015.8 |
| 20260902081006 | 83 | 190 | 0.0 | 0.0 | 0.00 | 0.00 | 0.00 | 73 | 1015.9 |
| 20260902080508 | 83 | 190 | 0.0 | 0.9 | 0.00 | 0.00 | 0.00 | 73 | 1015.9 |
| 20260902080021 | 83 | 190 | 0.0 | 0.9 | 0.00 | 0.00 | 0.00 | 72 | 1015.9 |
| 20260902075508 | 83 | 190 | 0.0 | 1.7 | 0.00 | 0.00 | 0.00 | 72 | 1015.8 |
| 20260902075013 | 83 | 185 | 0.0 | 1.7 | 0.00 | 0.00 | 0.00 | 72 | 1015.8 |
| 20260902074525 | 83 | 185 | 0.0 | 0.9 | 0.00 | 0.00 | 0.00 | 72 | 1015.9 |
| 20260902074009 | 83 | 185 | 0.0 | 3.5 | 0.00 | 0.00 | 0.00 | 72 | 1015.8 |
| 20260902073510 | 83 | 185 | 0.0 | 3.5 | 0.00 | 0.00 | 0.00 | 72 | 1015.9 |
| 20260902073027 | 84 | 190 | 0.0 | 2.6 | 0.00 | 0.00 | 0.00 | 72 | 1015.9 |
| 20260902072510 | 84 | 190 | 0.0 | 2.6 | 0.00 | 0.00 | 0.00 | 72 | 1016.0 |
| 20260902072012 | 84 | 190 | 0.0 | 2.6 | 0.00 | 0.00 | 0.00 | 71 | 1016.0 |
| 20260902071521 | 84 | 182 | 0.0 | 3.5 | 0.00 | 0.00 | 0.00 | 71 | 1016.0 |
| 20260902071003 | 84 | 182 | 0.0 | 5.2 | 0.00 | 0.00 | 0.00 | 71 | 1016.0 |
| 20260902070506 | 84 | 173 | 0.0 | 5.2 | 0.00 | 0.00 | 0.00 | 71 | 1016.0 |
| 20260902070019 | 84 | 165 | 0.9 | 5.2 | 0.00 | 0.00 | 0.00 | 71 | 1016.0 |
| 20260902065507 | 84 | 157 | 0.0 | 6.1 | 0.00 | 0.00 | 0.00 | 71 | 1016.1 |
| 20260902065008 | 84 | 153 | 0.0 | 6.1 | 0.00 | 0.00 | 0.00 | 70 | 1016.1 |
| 20260902064520 | 84 | 159 | 0.0 | 5.2 | 0.00 | 0.00 | 0.00 | 70 | 1016.1 |
| 20260902064007 | 84 | 211 | 0.0 | 4.3 | 0.00 | 0.00 | 0.00 | 70 | 1016.1 |
| 20260902063510 | 85 | 183 | 0.0 | 5.2 | 0.00 | 0.00 | 0.00 | 70 | 1016.1 |
| 20260902063043 | 85 | 201 | 0.0 | 5.2 | 0.00 | 0.00 | 0.00 | 70 | 1016.1 |
| 20260902062512 | 85 | 175 | 0.0 | 6.1 | 0.00 | 0.00 | 0.00 | 69 | 1016.0 |
| 20260902062012 | 85 | 195 | 0.0 | 7.0 | 0.00 | 0.00 | 0.00 | 69 | 1015.9 |
| 20260902061534 | 85 | 200 | 0.0 | 7.0 | 0.00 | 0.00 | 0.00 | 69 | 1015.9 |
| 20260902061012 | 85 | 199 | 0.0 | 5.2 | 0.00 | 0.00 | 0.00 | 70 | 1016.0 |
| 20260902060509 | 85 | 210 | 0.0 | 5.2 | 0.00 | 0.00 | 0.00 | 70 | 1016.0 |
| 20260902060038 | 85 | 190 | 0.9 | 6.1 | 0.00 | 0.00 | 0.00 | 70 | 1016.0 |
| 20260902055506 | 85 | 164 | 0.0 | 6.1 | 0.00 | 0.00 | 0.00 | 70 | 1016.0 |
| 20260902055004 | 85 | 188 | 0.0 | 3.5 | 0.00 | 0.00 | 0.00 | 69 | 1016.0 |
| 20260902054514 | 86 | 182 | 0.0 | 3.5 | 0.00 | 0.00 | 0.00 | 70 | 1015.9 |
| 20260902054009 | 86 | 200 | 0.0 | 2.6 | 0.00 | 0.00 | 0.00 | 69 | 1015.9 |
| 20260902053507 | 86 | 192 | 0.0 | 7.0 | 0.00 | 0.00 | 0.00 | 69 | 1015.9 |
| 20260902053021 | 86 | 193 | 0.0 | 7.0 | 0.00 | 0.00 | 0.00 | 69 | 1015.9 |
| 20260902052512 | 86 | 161 | 0.0 | 7.0 | 0.00 | 0.00 | 0.00 | 69 | 1015.9 |
| 20260902052012 | 86 | 173 | 0.9 | 7.0 | 0.00 | 0.00 | 0.00 | 68 | 1015.8 |
| 20260902051531 | 86 | 159 | 0.9 | 8.7 | 0.00 | 0.00 | 0.00 | 68 | 1015.7 |
| 20260902051009 | 86 | 179 | 2.6 | 8.7 | 0.00 | 0.00 | 0.00 | 68 | 1015.8 |
| 20260902050513 | 86 | 178 | 1.7 | 8.7 | 0.00 | 0.00 | 0.00 | 67 | 1015.8 |
| 20260902050032 | 87 | 177 | 3.5 | 7.8 | 0.00 | 0.00 | 0.00 | 67 | 1015.8 |
| 20260902045513 | 87 | 159 | 0.9 | 7.0 | 0.00 | 0.00 | 0.00 | 67 | 1015.8 |
| 20260902045014 | 87 | 167 | 0.0 | 4.3 | 0.00 | 0.00 | 0.00 | 67 | 1015.8 |
| 20260902044557 | 87 | 167 | 0.0 | 4.3 | 0.00 | 0.00 | 0.00 | 66 | 1015.7 |
| 20260902044008 | 87 | 187 | 0.0 | 7.0 | 0.00 | 0.00 | 0.00 | 66 | 1015.7 |
| 20260902043507 | 87 | 172 | 2.6 | 7.0 | 0.00 | 0.00 | 0.00 | 65 | 1015.6 |
| 20260902043016 | 87 | 133 | 0.0 | 7.0 | 0.00 | 0.00 | 0.00 | 65 | 1015.6 |
| 20260902042508 | 88 | 153 | 1.7 | 7.0 | 0.00 | 0.00 | 0.00 | 65 | 1015.6 |
| 20260902042016 | 88 | 209 | 0.9 | 7.0 | 0.00 | 0.00 | 0.00 | 65 | 1015.6 |
| 20260902041532 | 88 | 176 | 0.9 | 7.0 | 0.00 | 0.00 | 0.00 | 64 | 1015.5 |
| 20260902041015 | 88 | 192 | 0.0 | 7.8 | 0.00 | 0.00 | 0.00 | 64 | 1015.5 |
| 20260902040514 | 88 | 201 | 3.5 | 8.7 | 0.00 | 0.00 | 0.00 | 64 | 1015.5 |
| 20260902040029 | 88 | 165 | 2.6 | 8.7 | 0.00 | 0.00 | 0.00 | 63 | 1015.5 |
| 20260902035503 | 89 | 163 | 0.9 | 10.4 | 0.00 | 0.00 | 0.00 | 63 | 1015.4 |
| 20260902035003 | 89 | 157 | 3.5 | 11.3 | 0.00 | 0.00 | 0.00 | 62 | 1015.4 |
| 20260902034510 | 89 | 159 | 3.5 | 11.3 | 0.00 | 0.00 | 0.00 | 61 | 1015.3 |
| 20260902034004 | 89 | 217 | 3.5 | 12.2 | 0.00 | 0.00 | 0.00 | 59 | 1015.3 |
| 20260902033504 | 89 | 127 | 2.6 | 12.2 | 0.00 | 0.00 | 0.00 | 59 | 1015.2 |
| 20260902033014 | 89 | 128 | 2.6 | 6.1 | 0.00 | 0.00 | 0.00 | 61 | 1015.2 |
| 20260902032511 | 89 | 138 | 0.0 | 0.9 | 0.00 | 0.00 | 0.00 | 61 | 1015.1 |
| 20260902032011 | 89 | 138 | 0.0 | 0.9 | 0.00 | 0.00 | 0.00 | 60 | 1015.0 |
| 20260902031537 | 90 | 138 | 0.0 | 0.0 | 0.00 | 0.00 | 0.00 | 60 | 1015.0 |
| 20260902031012 | 90 | 138 | 0.0 | 0.0 | 0.00 | 0.00 | 0.00 | 59 | 1015.0 |
| 20260902030515 | 90 | 138 | 0.0 | 2.6 | 0.00 | 0.00 | 0.00 | 58 | 1014.9 |
| 20260902030024 | 90 | 138 | 0.0 | 4.3 | 0.00 | 0.00 | 0.00 | 58 | 1014.9 |
| 20260902025512 | 91 | 138 | 1.7 | 4.3 | 0.00 | 0.00 | 0.00 | 58 | 1014.7 |
| 20260902025012 | 91 | 140 | 0.0 | 1.7 | 0.00 | 0.00 | 0.00 | 58 | 1014.7 |
| 20260902024530 | 91 | 140 | 0.0 | 4.3 | 0.00 | 0.00 | 0.00 | 56 | 1014.7 |
| 20260902024007 | 91 | 140 | 0.0 | 4.3 | 0.00 | 0.00 | 0.00 | 56 | 1014.6 |
| 20260902023502 | 91 | 142 | 0.0 | 3.5 | 0.00 | 0.00 | 0.00 | 56 | 1014.5 |
| 20260902023020 | 91 | 140 | 0.9 | 4.3 | 0.00 | 0.00 | 0.00 | 56 | 1014.4 |
| 20260902022504 | 92 | 136 | 0.9 | 4.3 | 0.00 | 0.00 | 0.00 | 56 | 1014.4 |
| 20260902022009 | 92 | 134 | 0.9 | 4.3 | 0.00 | 0.00 | 0.00 | 56 | 1014.2 |
| 20260902021518 | 92 | 150 | 0.0 | 2.6 | 0.00 | 0.00 | 0.00 | 55 | 1014.1 |
| 20260902021010 | 92 | 150 | 0.0 | 4.3 | 0.00 | 0.00 | 0.00 | 55 | 1014.0 |
| 20260902020509 | 92 | 151 | 0.9 | 4.3 | 0.00 | 0.00 | 0.00 | 55 | 1014.0 |
| 20260902020024 | 92 | 165 | 0.0 | 0.9 | 0.00 | 0.00 | 0.00 | 55 | 1014.0 |
| 20260902015510 | 92 | 165 | 0.0 | 3.5 | 0.00 | 0.00 | 0.00 | 55 | 1013.8 |
| 20260902015010 | 92 | 165 | 0.0 | 3.5 | 0.00 | 0.00 | 0.00 | 55 | 1013.8 |
| 20260902014536 | 92 | 165 | 0.0 | 3.5 | 0.00 | 0.00 | 0.00 | 54 | 1013.7 |
| 20260902014012 | 93 | 166 | 0.0 | 3.5 | 0.00 | 0.00 | 0.00 | 55 | 1013.6 |
| 20260902013515 | 93 | 167 | 0.0 | 2.6 | 0.00 | 0.00 | 0.00 | 55 | 1013.6 |
| 20260902013032 | 93 | 167 | 0.0 | 2.6 | 0.00 | 0.00 | 0.00 | 55 | 1013.6 |
| 20260902012507 | 93 | 168 | 0.0 | 3.5 | 0.00 | 0.00 | 0.00 | 55 | 1013.6 |
| 20260902012003 | 94 | 167 | 0.0 | 3.5 | 0.00 | 0.00 | 0.00 | 56 | 1013.5 |
| 20260902011519 | 94 | 162 | 0.0 | 6.1 | 0.00 | 0.00 | 0.00 | 54 | 1013.5 |
| 20260902011007 | 94 | 158 | 0.0 | 6.1 | 0.00 | 0.00 | 0.00 | 53 | 1013.5 |
| 20260902010508 | 95 | 158 | 0.0 | 6.1 | 0.00 | 0.00 | 0.00 | 52 | 1013.5 |
| 20260902010019 | 95 | 161 | 0.9 | 6.1 | 0.00 | 0.00 | 0.00 | 50 | 1013.4 |
| 20260902005510 | 96 | 190 | 0.0 | 0.0 | 0.00 | 0.00 | 0.00 | 49 | 1013.4 |
| 20260902005010 | 96 | 190 | 0.0 | 0.0 | 0.00 | 0.00 | 0.00 | 49 | 1013.4 |
| 20260902004524 | 97 | 190 | 0.0 | 0.0 | 0.00 | 0.00 | 0.00 | 48 | 1013.4 |
| 20260902004012 | 97 | 190 | 0.0 | 0.0 | 0.00 | 0.00 | 0.00 | 48 | 1013.3 |
| 20260902003515 | 97 | 190 | 0.0 | 0.0 | 0.00 | 0.00 | 0.00 | 46 | 1013.4 |
| 20260902003029 | 97 | 190 | 0.0 | 0.0 | 0.00 | 0.00 | 0.00 | 46 | 1013.4 |
| 20260902002518 | 98 | 190 | 0.0 | 0.0 | 0.00 | 0.00 | 0.00 | 46 | 1013.5 |
| 20260902002014 | 98 | 190 | 0.0 | 0.0 | 0.00 | 0.00 | 0.00 | 46 | 1013.4 |
| 20260902001531 | 98 | 190 | 0.0 | 0.0 | 0.00 | 0.00 | 0.00 | 46 | 1013.5 |
| 20260902001006 | 98 | 190 | 0.0 | 0.0 | 0.00 | 0.00 | 0.00 | 47 | 1013.5 |
| 20260902000507 | 97 | 190 | 0.0 | 1.7 | 0.00 | 0.00 | 0.00 | 46 | 1013.6 |
| 20260902000015 | 97 | 188 | 0.0 | 1.7 | 0.00 | 0.00 | 0.00 | 46 | 1013.6 |
| 20260901235506 | 97 | 188 | 0.0 | 2.6 | 0.00 | 0.00 | 0.00 | 46 | 1013.5 |
| 20260901235008 | 98 | 190 | 0.0 | 4.3 | 0.00 | 0.00 | 0.00 | 46 | 1013.5 |
| 20260901234520 | 98 | 133 | 0.0 | 7.0 | 0.00 | 0.00 | 0.00 | 46 | 1013.6 |
| 20260901234008 | 98 | 126 | 0.0 | 7.0 | 0.00 | 0.00 | 0.00 | 45 | 1013.7 |
| 20260901233510 | 98 | 186 | 0.0 | 7.0 | 0.00 | 0.00 | 0.00 | 46 | 1013.7 |
| 20260901233028 | 97 | 153 | 0.0 | 6.1 | 0.00 | 0.00 | 0.00 | 46 | 1013.7 |
| 20260901232515 | 98 | 152 | 2.6 | 7.0 | 0.00 | 0.00 | 0.00 | 45 | 1013.8 |
| 20260901232015 | 98 | 150 | 1.7 | 7.0 | 0.00 | 0.00 | 0.00 | 45 | 1013.8 |
| 20260901231534 | 98 | 143 | 1.7 | 7.8 | 0.00 | 0.00 | 0.00 | 44 | 1013.9 |
| 20260901231015 | 98 | 159 | 0.9 | 7.8 | 0.00 | 0.00 | 0.00 | 44 | 1013.9 |
| 20260901230514 | 99 | 126 | 2.6 | 7.8 | 0.00 | 0.00 | 0.00 | 44 | 1013.9 |
| 20260901230029 | 99 | 150 | 0.9 | 7.0 | 0.00 | 0.00 | 0.00 | 44 | 1013.9 |
| 20260901225506 | 99 | 208 | 0.0 | 2.6 | 0.00 | 0.00 | 0.00 | 45 | 1013.9 |
| 20260901225007 | 98 | 207 | 0.0 | 4.3 | 0.00 | 0.00 | 0.00 | 46 | 1013.9 |
| 20260901224518 | 98 | 179 | 0.9 | 4.3 | 0.00 | 0.00 | 0.00 | 45 | 1013.9 |
| 20260901224015 | 98 | 189 | 0.0 | 4.3 | 0.00 | 0.00 | 0.00 | 45 | 1013.9 |
| 20260901223508 | 98 | 196 | 0.0 | 4.3 | 0.00 | 0.00 | 0.00 | 45 | 1013.9 |
| 20260901223023 | 98 | 175 | 0.0 | 3.5 | 0.00 | 0.00 | 0.00 | 44 | 1014.0 |
| 20260901222509 | 99 | 187 | 0.0 | 6.1 | 0.00 | 0.00 | 0.00 | 45 | 1013.9 |
| 20260901222017 | 99 | 175 | 0.0 | 7.0 | 0.00 | 0.00 | 0.00 | 45 | 1013.9 |
| 20260901221526 | 99 | 172 | 0.0 | 7.0 | 0.00 | 0.00 | 0.00 | 44 | 1014.0 |
| 20260901221014 | 99 | 152 | 2.6 | 6.1 | 0.00 | 0.00 | 0.00 | 43 | 1013.9 |
| 20260901220516 | 99 | 159 | 0.9 | 6.1 | 0.00 | 0.00 | 0.00 | 43 | 1014.0 |
| 20260901220032 | 100 | 157 | 0.9 | 6.1 | 0.00 | 0.00 | 0.00 | 43 | 1014.0 |
| 20260901215516 | 100 | 209 | 0.9 | 6.1 | 0.00 | 0.00 | 0.00 | 43 | 1014.1 |
| 20260901215019 | 100 | 175 | 0.0 | 5.2 | 0.00 | 0.00 | 0.00 | 42 | 1014.1 |
| 20260901214537 | 100 | 201 | 0.0 | 5.2 | 0.00 | 0.00 | 0.00 | 42 | 1014.1 |
| 20260901214007 | 101 | 173 | 0.9 | 6.1 | 0.00 | 0.00 | 0.00 | 43 | 1014.2 |
| 20260901213507 | 101 | 203 | 0.9 | 8.7 | 0.00 | 0.00 | 0.00 | 43 | 1014.2 |
| 20260901213026 | 101 | 159 | 2.6 | 8.7 | 0.00 | 0.00 | 0.00 | 43 | 1014.2 |
| 20260901212508 | 101 | 142 | 0.0 | 7.8 | 0.00 | 0.00 | 0.00 | 42 | 1014.3 |
| 20260901212016 | 101 | 159 | 2.6 | 8.7 | 0.00 | 0.00 | 0.00 | 42 | 1014.4 |
| 20260901211525 | 100 | 128 | 0.0 | 8.7 | 0.00 | 0.00 | 0.00 | 41 | 1014.4 |
| 20260901211013 | 100 | 116 | 2.6 | 7.8 | 0.00 | 0.00 | 0.00 | 42 | 1014.4 |
| 20260901210512 | 100 | 129 | 0.9 | 7.8 | 0.00 | 0.00 | 0.00 | 41 | 1014.4 |
| 20260901210027 | 100 | 140 | 0.0 | 7.8 | 0.00 | 0.00 | 0.00 | 42 | 1014.5 |
| 20260901205516 | 100 | 168 | 1.7 | 8.7 | 0.00 | 0.00 | 0.00 | 43 | 1014.5 |
| 20260901205016 | 99 | 120 | 1.7 | 8.7 | 0.00 | 0.00 | 0.00 | 43 | 1014.5 |
| 20260901204532 | 100 | 86 | 1.7 | 8.7 | 0.00 | 0.00 | 0.00 | 41 | 1014.5 |
| 20260901204018 | 100 | 114 | 0.9 | 8.7 | 0.00 | 0.00 | 0.00 | 42 | 1014.5 |
| 20260901203518 | 100 | 140 | 4.3 | 8.7 | 0.00 | 0.00 | 0.00 | 42 | 1014.7 |
| 20260901203033 | 100 | 136 | 1.7 | 8.7 | 0.00 | 0.00 | 0.00 | 43 | 1014.7 |
| 20260901202508 | 99 | 131 | 0.0 | 8.7 | 0.00 | 0.00 | 0.00 | 44 | 1014.7 |
| 20260901202011 | 100 | 128 | 6.1 | 8.7 | 0.00 | 0.00 | 0.00 | 44 | 1014.8 |
| 20260901201521 | 100 | 144 | 1.7 | 6.1 | 0.00 | 0.00 | 0.00 | 44 | 1014.9 |
| 20260901201013 | 100 | 168 | 0.9 | 4.3 | 0.00 | 0.00 | 0.00 | 45 | 1014.9 |
| 20260901200510 | 99 | 191 | 0.0 | 4.3 | 0.00 | 0.00 | 0.00 | 46 | 1014.9 |
| 20260901200028 | 98 | 134 | 0.0 | 2.6 | 0.00 | 0.00 | 0.00 | 46 | 1015.0 |
| 20260901195512 | 98 | 134 | 0.0 | 6.1 | 0.00 | 0.00 | 0.00 | 47 | 1015.2 |
| 20260901195015 | 98 | 119 | 0.0 | 7.0 | 0.00 | 0.00 | 0.00 | 47 | 1015.2 |